EHI
0 0 0 0 0 0 0 0 0 0 0 0 0 0 0 0 0 0 0 0 0 0 0 0 0 0 0 0 0 0 0 0 0 0 0 0 0 0 0 0 0 0 0 0
0 0 0 0 0 0 0 0 0 0 0 0 0 0 0 0 0 0 0 0 0 0 0 0 0 0 0 0 0 0 0 0 0 0 0 0 0 0 0 0 0 0 0 0
0 0 0 0 0 0 0 0 0 0 0 0 0 0 0 0 0 0 0 0 0 0 0 0 0 0 0 0 0 0 0 0 0 0 0 0 0 0 0 0 0 0 0 0
0 0 0 0 0 0 0 0 0 0 0 0 0 0 0 0 0 0 0 0 0 0 0 0 0 0 0 0 0 0 0 0 0 0 0 0 0 0 0 0 0 0 0 0
0 0 0 0 0 0 0 0 0 0 0 0 0 0 0 0 0 0 0 0 0 0 0 0 0 0 0 0 0 0 0 0 0 0 0 0 0 0 0 0 0 0 0 0
0 0 0 0 0 0 0 0 0 0 0 0 0 0 0 0 0 0 0 0 0 0 0 0 0 0 0 0 0 0 0 0 0 0 0 0 0 0 0 0 0 0 0 0
0 0 0 0 0 0 0 0 0 0 0 0 0 0 0 0 0 0 0 0 0 0 0 0 0 0 0 0 0 0 0 0 0 0 0 0 0 0 0 0 0 0 0 0
0 0 0 0 0 0 0 0 0 0 0 0 0 0 0 0 0 0 0 0 0 0 0 0 0 0 0 0 0 0 0 0 0 0 0 0 0 0 0 0 0 0 0 0
0 0 0 0 0 0 0 0 0 0 0 0 0 0 0 0 0 0 0 0 0 0 0 0 0 0 0 0 0 0 0 0 0 0 0 0 0 0 0 0 0 0 0 0
0 0 0 0 0 0 0 0 0 0 0 0 0 0 0 0 0 0 0 0 0 0 0 0 0 0 0 0 0 0 0 0 0 0 0 0 0 0 0 0 0 0 0 0
0 0 0 0 0 0 0 0 0 0 0 0 0 0 0 0 0 0 0 0 0 0 0 0 0 0 0 0 0 0 0 0 0 0 0 0 0 0 0 0 0 0 0 0
0 0 0 0 0 0 0 0 0 0 0 0 0 0 0 0 0 0 0 0 0 0 0 0 0 0 0 0 0 0 0 0 0 0 0 0 0 0 0 0 0 0 0 0
0 0 0 0 0 0 0 0 0 0 0 0 0 0 0 0 0 0 0 0 0 0 0 0 0 0 0 0 0 0 0 0 0 0 0 0 0 0 0 0 0 0 0 0
0 0 0 0 0 0 0 0 0 0 0 0 0 0 0 0 0 0 0 0 0 0 0 0 0 0 0 0 0 0 0 0 0 0 0 0 0 0 0 0 0 0 0 0
0 0 0 0 0 0 0 0 0 0 0 0 0 0 0 0 0 0 0 0 0 0 0 0 0 0 0 0 0 0 0 0 0 0 0 0 0 0 0 0 0 0 0 0
0 0 0 0 0 0 0 0 0 0 0 0 0 0 0 0 0 0 0 0 0 0 0 0 0 0 0 0 0 0 0 0 0 0 0 0 0 0 0 0 0 0 0 0
0 0 0 0 0 0 0 0 0 0 0 0 0 0 0 0 0 0 0 0 0 0 0 0 0 0 0 0 0 0 0 0 0 0 0 0 0 0 0 0 0 0 0 0
0 0 0 0 0 0 0 0 0 0 0 0 0 0 0 0 0 0 0 0 0 0 0 0 0 0 0 0 0 0 0 0 0 0 0 0 0 0 0 0 0 0 0 0
0 0 0 0 0 0 0 0 0 0 0 0 0 0 0 0 0 0 0 0 0 0 0 0 0 0 0 0 0 0 0 0 0 0 0 0 0 0 0 0 0 0 0 0
0 0 0 0 0 0 0 0 0 0 0 0 0 0 0 0 0 0 0 0 0 0 0 0 0 0 0 0 0 0 0 0 0 0 0 0 0 0 0 0 0 0 0 0
0 0 0 0 0 0 0 0 0 0 0 0 0 0 0 0 0 0 0 0 0 0 0 0 0 0 0 0 0 0 0 0 0 0 0 0 0 0 0 0 0 0 0 0
0 0 0 0 0 0 0 0 0 0 0 0 0 0 0 0 0 0 0 0 0 0 0 0 0 0 0 0 0 0 0 0 0 0 0 0 0 0 0 0 0 0 0 0
0 0 0 0 0 0 0 0 0 0 0 0 0 0 0 0 0 0 0 0 0 0 0 0 0 0 0 0 0 0 0 0 0 0 0 0 0 0 0 0 0 0 0 0
0 0 0 0 0 0 0 0 0 0 0 0 0 0 0 0 0 0 0 0 0 0 0 0 0 0 0 0 0 0 0 0 0 0 0 0 0 0 0 0 0 0 0 0
0 0 0 0 0 0 0 0 0 0 0 0 0 0 0 0 0 0 0 0 0 0 0 0 0 0 0 0 0 0 0 0 0 0 0 0 0 0 0 0 0 0 0 0
0 0 0 0 0 0 0 0 0 0 0 0 0 0 0 0 0 0 0 0 0 0 0 0 0 0 0 0 0 0 0 0 0 0 0 0 0 0 0 0 0 0 0 0
0 0 0 0 0 0 0 0 0 0 0 0 0 0 0 0 0 0 0 0 0 0 0 0 0 0 0 0 0 0 0 0 0 0 0 0 0 0 0 0 0 0 0 0
Wind_Speed
2 2 3 5 6 6 3 1 1 2 2 5 7 6 5 5 5 5 5 6 5 4 4 4 4 4 3 3 3 1 1 2 2 2 2 3 4 4 4 5 4 4 5 4
2 1 3 5 6 5 3 2 2 2 3 6 7 6 7 6 5 4 4 5 4 4 4 4 4 3 3 3 3 2 1 1 1 2 2 3 3 4 4 4 4 4 4 4
3 4 3 4 5 3 2 2 1 1 4 7 7 8 7 6 5 5 5 4 4 4 3 3 3 3 3 3 3 2 2 1 1 2 2 2 3 4 4 4 4 4 4 4
2 3 0 3 2 2 1 2 4 4 5 6 6 6 4 4 5 6 6 5 4 4 4 3 3 3 3 3 3 2 2 2 2 2 3 2 3 3 3 3 3 4 4 4
0 0 3 3 5 4 2 1 5 6 7 7 7 4 3 5 7 6 5 5 3 3 3 3 3 3 3 3 3 3 2 1 1 2 3 3 3 3 3 3 3 3 3 3
1 1 3 3 8 8 1 1 5 6 7 7 6 3 4 7 8 8 7 5 4 3 3 3 3 2 3 3 3 2 2 1 1 1 2 3 2 2 2 3 3 3 2 2
1 2 4 4 9 5 2 4 7 6 6 5 3 3 6 7 7 7 7 5 4 3 3 2 2 2 2 2 2 2 2 2 1 1 1 2 2 2 2 3 3 3 2 1
1 1 4 5 4 2 3 5 5 5 5 5 5 5 6 7 7 7 6 5 4 3 3 3 2 2 2 2 3 2 2 2 2 1 1 2 3 2 2 3 3 3 2 1
3 4 3 2 2 3 4 5 5 5 5 4 5 6 6 6 7 6 6 5 4 3 3 3 3 2 1 2 2 2 2 2 2 2 2 2 2 3 2 2 3 2 2 1
2 3 4 3 3 4 4 4 5 4 4 4 4 5 6 6 6 6 5 4 3 3 3 4 4 3 2 2 2 2 2 2 2 2 2 2 2 1 2 2 2 2 2 1
3 5 5 4 5 5 5 5 6 5 4 4 4 5 5 5 6 5 5 4 3 2 2 3 3 3 3 3 2 2 1 1 1 1 1 2 2 1 1 0 2 2 2 2
4 4 3 5 5 5 5 6 6 5 5 5 4 5 5 5 5 4 4 3 3 3 3 3 3 4 4 3 2 1 1 1 1 1 1 2 2 3 4 3 3 2 1 1
4 4 4 5 5 4 5 5 5 5 4 5 5 4 4 4 4 4 4 3 3 3 3 3 3 4 4 3 2 2 1 1 1 1 1 1 1 2 2 4 4 4 3 2
3 2 3 3 4 5 5 5 5 4 4 4 4 4 3 4 4 4 4 3 3 3 3 3 4 4 4 3 3 3 2 2 1 1 1 1 1 1 1 1 1 2 2 2
3 2 4 4 4 4 4 4 4 5 5 5 4 4 4 4 4 4 4 3 3 4 4 4 4 4 4 3 3 3 2 2 1 1 1 1 1 1 1 1 1 1 1 1
4 3 3 3 4 5 4 3 3 4 4 4 4 5 4 4 4 3 4 3 3 3 4 3 4 4 4 3 3 3 2 4 3 2 2 2 1 1 1 1 1 1 0 1
2 3 3 4 4 4 4 3 3 3 4 4 4 5 5 4 4 4 4 4 3 3 3 3 3 3 3 3 2 2 2 3 4 3 2 2 1 1 1 1 1 1 1 1
3 3 3 3 4 4 3 3 3 3 3 4 4 4 4 4 4 4 4 3 4 4 4 3 3 3 3 3 2 2 2 2 2 2 2 2 1 1 1 1 1 1 1 2
2 3 3 3 3 2 2 3 3 3 3 3 3 3 3 3 3 3 3 3 3 4 4 4 5 3 3 3 3 2 2 2 2 2 2 2 2 2 2 1 1 1 1 1
3 2 2 2 2 2 2 3 3 3 3 3 2 3 3 3 3 3 3 2 2 2 3 3 3 3 3 3 3 1 1 1 1 1 2 2 2 2 1 1 1 1 1 1
3 3 3 2 2 2 2 3 2 3 3 3 2 2 3 3 3 2 2 3 3 3 3 4 3 2 2 2 3 1 1 1 1 1 1 1 1 1 1 1 1 1 1 1
3 2 3 3 2 3 3 2 2 2 3 3 3 3 3 3 3 2 2 2 3 4 3 2 2 2 3 3 2 1 1 1 1 1 1 1 1 1 1 1 1 1 1 1
3 2 2 2 2 3 3 2 2 2 2 3 3 3 3 3 2 2 3 2 2 4 3 2 3 4 4 3 2 1 1 1 1 1 1 1 1 1 1 1 1 1 1 1
2 2 2 2 1 1 3 3 2 2 2 3 3 3 3 2 2 2 2 4 5 5 2 3 5 5 4 2 1 1 1 1 1 1 1 1 1 1 1 1 1 2 2 2
2 2 2 2 2 2 3 3 3 2 2 2 3 3 2 2 2 3 2 3 5 4 2 3 5 5 3 1 1 1 1 1 1 1 1 1 1 1 1 1 2 2 2 2
2 2 2 2 2 2 2 2 2 2 2 3 3 3 2 2 2 2 2 2 3 4 3 2 2 3 1 1 1 1 1 1 2 1 1 1 2 2 2 2 2 2 2 2
2 1 1 2 2 2 2 2 2 2 2 2 3 3 3 2 2 2 2 2 2 2 2 2 2 2 1 1 1 1 1 1 1 1 2 2 2 2 2 3 3 3 3 3
Wind_Direction
281 299 33 18 0 8 34 46 150 304 319 334 342 345 350 2 15 37 37 28 20 14 7 5 6 8 8 6 4 20 97 126 156 156 151 149 148 148 147 149 153 157 157 157
315 291 26 12 359 349 342 332 319 341 321 332 338 357 3 7 16 23 22 16 11 6 1 359 358 359 3 2 3 15 93 124 128 126 123 130 139 139 140 146 149 146 151 158
305 314 15 354 340 326 330 354 349 311 306 334 347 350 349 353 8 11 5 360 355 350 343 342 345 351 354 353 1 19 67 92 110 114 113 122 130 132 140 149 145 144 150 155
310 21 330 258 338 338 320 25 20 3 346 340 326 317 332 6 5 355 350 345 341 339 339 340 351 358 356 1 8 26 57 74 92 116 120 115 121 132 141 141 145 149 153 157
76 298 283 317 346 342 305 322 14 356 344 339 333 340 355 8 1 345 335 331 327 330 337 348 359 2 16 16 15 27 39 58 90 129 129 128 135 144 140 134 132 133 143 143
99 141 249 296 315 314 253 282 351 344 333 331 344 351 313 335 338 337 339 339 344 349 356 1 358 11 34 23 12 10 14 11 25 133 142 146 152 144 125 126 129 130 124 132
165 224 266 309 316 348 88 286 317 321 319 321 320 291 298 321 330 335 336 342 351 357 359 347 351 18 30 19 349 340 357 15 32 68 120 137 131 120 125 123 120 122 120 112
165 225 270 332 359 30 277 296 309 311 317 318 319 320 324 328 330 335 341 350 355 358 357 352 359 24 26 356 339 351 17 35 47 54 81 106 117 113 117 125 124 123 116 89
202 222 262 314 294 288 298 307 308 310 315 325 327 324 328 331 331 335 339 343 348 354 358 360 1 17 21 341 351 12 34 40 50 52 62 87 117 125 123 127 133 141 140 140
269 276 293 306 316 324 321 313 312 318 319 326 324 321 325 326 327 333 338 344 349 1 9 360 359 6 5 350 3 38 47 37 46 68 66 66 80 114 136 146 149 157 163 166
272 287 310 308 315 321 326 329 331 333 332 327 325 322 322 321 322 325 329 337 348 358 4 355 355 4 4 5 17 39 49 47 53 68 97 86 69 64 96 134 174 175 181 179
245 259 262 280 300 321 325 324 325 330 335 336 328 317 322 321 321 324 329 340 354 1 6 358 359 4 5 5 17 54 56 48 63 87 91 95 89 59 46 61 59 61 99 174
250 274 262 276 296 313 313 316 321 325 322 323 328 323 327 330 333 337 346 356 357 356 359 359 1 3 360 359 10 31 52 39 81 101 111 111 114 114 85 52 53 60 63 60
278 301 294 292 292 305 311 318 324 326 325 323 326 333 338 340 342 345 348 349 354 1 3 4 5 357 356 3 14 22 28 25 28 80 107 120 120 121 128 118 75 38 34 46
290 278 269 288 301 308 314 323 331 331 331 335 339 341 343 341 336 336 341 349 2 8 3 6 4 353 357 9 18 21 24 28 35 52 58 70 81 93 109 115 114 87 34 40
295 302 302 311 314 319 323 322 316 317 326 332 337 338 337 332 331 339 349 356 4 358 351 356 353 349 359 11 17 17 26 27 25 49 58 56 56 68 85 95 92 83 42 354
287 293 299 305 305 306 307 305 302 308 319 322 322 326 334 339 349 356 356 359 1 350 346 348 343 350 1 7 16 19 23 27 29 39 50 52 51 54 66 81 78 49 13 356
256 262 270 271 281 294 305 313 310 309 309 308 316 327 335 339 338 339 344 356 6 4 355 343 347 358 4 9 14 18 21 25 31 37 38 39 43 52 60 63 62 44 7 7
289 282 286 290 287 283 293 302 303 305 309 316 322 324 326 327 325 331 343 360 1 350 341 345 356 6 11 11 13 27 35 37 37 31 28 33 31 37 40 46 44 30 10 3
308 304 302 307 318 315 307 309 313 317 319 322 328 335 338 333 333 340 351 351 338 316 322 338 348 356 360 4 8 24 38 42 42 34 27 27 24 24 28 30 23 7 4 14
303 309 312 311 313 316 312 313 318 318 323 333 334 329 327 327 330 336 345 339 339 344 349 351 355 349 353 0 7 20 33 34 29 26 21 20 24 25 22 20 12 359 353 353
296 300 300 305 312 314 317 318 313 315 325 330 328 326 326 326 330 335 328 308 321 334 342 339 338 350 358 3 16 25 30 27 23 25 24 11 4 5 4 357 345 333 334 335
283 286 290 292 292 301 320 323 315 315 316 318 319 319 315 311 315 317 317 321 323 331 336 329 339 351 1 19 28 29 27 23 15 9 5 355 340 327 320 321 318 314 314 313
282 288 290 298 313 324 317 313 311 310 307 308 312 312 309 312 315 302 290 315 326 328 335 336 347 357 11 26 25 21 12 7 358 346 339 336 330 323 312 307 306 305 303 302
279 282 294 315 311 296 295 308 317 315 313 310 312 314 309 293 287 303 310 314 323 334 342 344 347 354 7 5 357 348 337 318 311 325 333 329 319 311 304 299 294 293 294 293
280 281 277 274 276 290 299 305 307 308 311 312 315 315 314 308 298 302 312 317 323 331 337 332 331 339 346 339 327 320 318 318 326 327 309 299 295 292 289 289 289 287 286 285
293 296 301 306 303 298 296 295 292 297 297 294 299 308 310 312 316 319 320 323 326 326 324 324 326 326 323 319 312 309 304 300 295 288 282 276 273 274 276 276 278 280 281 281